Eau Claire, WI

4:38 AM CST on February 07, 2016 (GMT -0600)
Chippewa Valley Regional

Weather History for KEAU - July, 2014

Change the Weather History Date:

Tuesday, July 1, 2014

  Actual Average Record
Temperature  
Mean Temperature 68 °F 71 °F  
Max Temperature 76 °F 82 °F 100 °F (1931)
Min Temperature 59 °F 60 °F 44 °F (1969)
Degree Days  
Heating Degree Days 0 1  
Month to date heating degree days 0 1  
Since 1 June heating degree days 25 63  
Since 1 July heating degree days 0 1  
Cooling Degree Days 3 6  
Month to date cooling degree days 3 6  
Year to date cooling degree days 172 158  
Since 1 June cooling degree days 137 126  
Growing Degree Days 18 (Base 50)    
Moisture  
Dew Point 59 °F    
Average Humidity 75    
Maximum Humidity 90    
Minimum Humidity 60    
Precipitation  
Precipitation 0.06 in 0.13 in 1.70 in (1931)
Month to date precipitation 0.06 0.13  
Year to date precipitation 24.00 13.90  
Snow  
Snow 0.00 in 0.00 in 0.00 in ()
Month to date snowfall 0.0 0.0  
Since 1 June snowfall 0.0 0.0  
Since 1 July snowfall 0.0 0.0  
Snow Depth 0.00 in    
Sea Level Pressure  
Sea Level Pressure 29.62 in    
Wind  
Wind Speed 13 mph (West)    
Max Wind Speed 24 mph    
Max Gust Speed 34 mph    
Visibility 10 miles    
Events Rain    
T = Trace of Precipitation, MM = Missing Value Source: NWS Daily Summary

Daily Weather History Graph

Daily Weather History Graph

Search for Another Location

Airport or City:

Trip Planner

Search our weather history database for the weather conditions in past years. The results will help you decide how hot, cold, wet, or windy it might be!

Date:

Astronomy

Jul. 01, 2014 Rise Set
Actual Time 5:23 AM CDT 8:55 PM CDT
Civil Twilight 4:46 AM CDT 9:32 PM CDT
Nautical Twilight 3:57 AM CDT 10:21 PM CDT
Astronomical Twilight 2:53 AM CDT 11:25 PM CDT
Moon 9:43 AM CDT (7/1) 11:06 PM CDT (7/1)
Length of Visible Light 16h 46m
Length of Day
15h 32m
Waxing Crescent, 17% of the Moon is Illuminated
Jul 1
Waxing Crescent
Jul 5
First Quarter
Jul 12
Full
Jul 18
Last Quarter
Jul 26
New

Hourly Weather History & Observations

Time (CDT) Temp. Dew Point Humidity Pressure Visibility Wind Dir Wind Speed Gust Speed Precip Events Conditions
12:56 AM 66.0 °F 59.0 °F 78% 29.51 in 10.0 mi SW 11.5 mph - N/A   Clear
1:56 AM 66.0 °F 57.0 °F 73% 29.52 in 10.0 mi SW 11.5 mph - N/A   Clear
2:56 AM 64.9 °F 55.9 °F 73% 29.51 in 10.0 mi SW 12.7 mph - N/A   Clear
4:56 AM 64.0 °F 55.9 °F 75% 29.53 in 10.0 mi WSW 10.4 mph - N/A   Mostly Cloudy
7:56 AM 66.9 °F 59.0 °F 76% 29.55 in 10.0 mi WSW 12.7 mph - N/A   Partly Cloudy
8:21 AM 68.0 °F 60.1 °F 76% 29.57 in 10.0 mi WSW 13.8 mph - N/A   Mostly Cloudy
8:56 AM 69.1 °F 60.1 °F 73% 29.57 in 10.0 mi West 10.4 mph - N/A   Overcast
9:56 AM 68.0 °F 61.0 °F 78% 29.59 in 10.0 mi WSW 12.7 mph - N/A   Overcast
11:49 AM 70.0 °F 63.0 °F 78% 29.59 in 10.0 mi WSW 8.1 mph - 0.00 in   Overcast
11:56 AM 70.0 °F 62.1 °F 76% 29.59 in 10.0 mi SW 8.1 mph - 0.00 in   Overcast
12:56 PM 70.0 °F 63.0 °F 78% 29.60 in 7.0 mi WSW 15.0 mph 23.0 mph 0.02 in Rain Light Rain
1:01 PM 66.9 °F 64.0 °F 90% 29.61 in 2.5 mi West 10.4 mph 23.0 mph 0.03 in Rain Heavy Rain
1:09 PM 69.1 °F 66.0 °F 90% 29.60 in 6.0 mi WSW 11.5 mph - 0.03 in Rain Light Rain
1:56 PM 72.0 °F 64.0 °F 76% 29.59 in 10.0 mi WSW 18.4 mph 23.0 mph 0.03 in   Mostly Cloudy
2:56 PM 75.0 °F 60.1 °F 60% 29.59 in 10.0 mi WSW 17.3 mph 23.0 mph N/A   Mostly Cloudy
3:56 PM 73.0 °F 59.0 °F 61% 29.60 in 10.0 mi West 15.0 mph - N/A   Mostly Cloudy
4:56 PM 69.1 °F 61.0 °F 75% 29.61 in 10.0 mi WSW 10.4 mph - 0.01 in   Overcast
5:56 PM 69.1 °F 59.0 °F 70% 29.62 in 10.0 mi West 11.5 mph - N/A   Overcast
6:56 PM 64.9 °F 61.0 °F 87% 29.65 in 10.0 mi West 18.4 mph 24.2 mph N/A   Overcast
7:37 PM 62.1 °F 57.9 °F 86% 29.68 in 10.0 mi WNW 17.3 mph 26.5 mph N/A   Overcast
7:56 PM 62.1 °F 57.0 °F 84% 29.67 in 10.0 mi WNW 15.0 mph 24.2 mph N/A   Overcast
8:56 PM 61.0 °F 57.0 °F 87% 29.69 in 10.0 mi West 12.7 mph - N/A   Overcast
9:25 PM 61.0 °F 55.9 °F 83% 29.72 in 10.0 mi West 9.2 mph 18.4 mph N/A   Overcast
9:56 PM 61.0 °F 55.0 °F 81% 29.72 in 10.0 mi West 11.5 mph - N/A   Overcast
10:56 PM 60.1 °F 54.0 °F 80% 29.74 in 10.0 mi WNW 12.7 mph - N/A   Overcast
11:14 PM 60.1 °F 54.0 °F 80% 29.75 in 10.0 mi WNW 11.5 mph - N/A   Overcast
11:35 PM 60.1 °F 54.0 °F 80% 29.76 in 10.0 mi NW 12.7 mph - N/A   Overcast